Regional Weather Roundup
Issued by NWS

Home | Current Version | Previous Version | Graphics & Text | Print | Product List | Glossary On
Versions: 1 2 3 4 5 6 7 8 9 10 11 12 13 14 15 16 17 18 19 20 21 22 23 24 25 26 27 28 29 30 31 32 33 34 35 36 37 38 39 40 41 42 43 44 45 46 47 48 49 50
000
ASUS45 KBOI 102110
RWRID

IDAHO REGIONAL WEATHER ROUNDUP
NATIONAL WEATHER SERVICE BOISE ID
200 PM MST WED FEB 10 2016

NOTE: "FAIR" INDICATES FEW OR NO CLOUDS BELOW 12000 FEET
WITH NO SIGNIFICANT WEATHER AND/OR OBSTRUCTIONS TO VISIBILITY

IDZ012-014-102200-
SOUTHWEST IDAHO


CITY           SKY/WX    TMP DP  RH WIND       PRES   REMARKS
BOISE          NOT AVBL
CALDWELL       PTSUNNY   39  30  70 E5        30.45
$$

IDZ016-017-102200-
SOUTHCENTRAL IDAHO


CITY           SKY/WX    TMP DP  RH WIND       PRES   REMARKS
JEROME         NOT AVBL
TWIN FALLS     NOT AVBL
$$

IDZ019>023-102200-
SOUTHEAST IDAHO


CITY           SKY/WX    TMP DP  RH WIND       PRES   REMARKS
IDAHO FALLS    NOT AVBL
POCATELLO      NOT AVBL
REXBURG        NOT AVBL
$$

IDZ006-010-011-018-031-032-102200-
CENTRAL IDAHO MOUNTAINS


CITY           SKY/WX    TMP DP  RH WIND       PRES   REMARKS
MCCALL         NOT AVBL
HAILEY         MOSUNNY   36  25  64 SE6       30.38F WCI  31
STANLEY          N/A     27  15  61 CALM      30.37F
SALMON         CLOUDY    18  16  93 CALM      30.41
CHALLIS        SUNNY     23  17  78 CALM      30.37
$$

IDZ002-004-006-007-026-102200-
NORTHERN IDAHO


CITY           SKY/WX    TMP DP  RH WIND       PRES   REMARKS
LEWISTON       MOSUNNY   53  34  48 SE9G18    30.25F
LOWELL           N/A     49  37  63 N3        30.29F
COEUR D`ALENE  CLOUDY    39  36  87 NE3       30.22S
MULLAN PASS    MOSUNNY   43  26  51 VRB6      30.21F
$$



USA.gov is the U.S. government's official web portal to all federal, state and local government web resources and services.